N1SU-13 Weather Reports


Display with metric or nautical units.
time (UTC)temp
F
wind
direction
speed
MPH
gust
MPH
rain 1hr
in
rain 24hr
in
rain mn
in
humidity
%
barometer
mb
20210925220651 76 0.0 0.0 0.00 0.00 0.00 47 1009.7
20210925215741 76 0.0 0.0 0.00 0.00 0.00 48 1009.9
20210925214753 75 0.0 0.0 0.00 0.00 0.00 48 1009.8
20210925214342 76 0.0 0.0 0.00 0.00 0.00 48 1009.9
20210925213804 76 0.0 0.0 0.00 0.00 0.00 48 1009.9
20210925212738 75 0.0 0.0 0.00 0.00 0.00 48 1010.0
20210925211751 75 0.0 0.0 0.00 0.00 0.00 49 1010.0
20210925211301 75 0.0 0.0 0.00 0.00 0.00 49 1010.2
20210925205826 74 0.0 0.0 0.00 0.00 0.00 49 1010.3
20210925204436 74 0.0 0.0 0.00 0.00 0.00 50 1010.4
20210925202933 73 0.0 0.0 0.00 0.00 0.00 51 1010.7
20210925202045 73 0.0 0.0 0.00 0.00 0.00 52 1010.9
20210925201958 73 0.0 0.0 0.00 0.00 0.00 53 1010.9
20210925201201 72 0.0 0.0 0.00 0.00 0.00 53 1011.0
20210925200144 72 0.0 0.0 0.00 0.00 0.00 54 1011.0
20210925195316 71 0.0 0.0 0.00 0.00 0.00 54 1011.1
20210925195254 71 0.0 0.0 0.00 0.00 0.00 53 1011.1
20210925194336 71 0.0 0.0 0.00 0.00 0.00 55 1011.1
20210925192242 70 0.0 0.0 0.00 0.00 0.00 56 1011.3
20210925190325 68 0.0 0.0 0.00 0.00 0.00 58 1011.6
20210925185453 68 0.0 0.0 0.00 0.00 0.00 58 1011.8
20210925183210 66 0.0 0.0 0.00 0.00 0.00 64 1012.0
20210925182707 65 0.0 0.0 0.00 0.00 0.00 63 1012.0
20210925182240 65 0.0 0.0 0.00 0.00 0.00 64 1012.0
20210925181220 64 0.0 0.0 0.00 0.00 0.00 66 1012.2
20210925180121 63 0.0 0.0 0.00 0.00 0.00 67 1012.0
20210925175727 63 0.0 0.0 0.00 0.00 0.00 67 1012.0
20210925175233 62 0.0 0.0 0.00 0.00 0.00 68 1012.0
20210925174141 61 0.0 0.0 0.00 0.00 0.00 70 1012.0
20210925173207 61 0.0 0.0 0.00 0.00 0.00 72 1012.1
20210925172309 60 0.0 0.0 0.00 0.00 0.00 74 1012.1
20210925171409 59 0.0 0.0 0.00 0.00 0.00 75 1012.3
20210925170424 59 0.0 0.0 0.00 0.00 0.00 75 1012.3
20210925165454 58 0.0 0.0 0.00 0.00 0.00 77 1012.4
20210925164356 57 0.0 0.0 0.00 0.00 0.00 78 1012.3
20210925163331 57 0.0 0.0 0.00 0.00 0.00 77 1012.2
20210925162429 56 0.0 0.0 0.00 0.00 0.00 77 1012.2
20210925161500 56 0.0 0.0 0.00 0.00 0.00 78 1012.2
20210925160437 55 0.0 0.0 0.00 0.00 0.00 80 1012.1
20210925160233 55 0.0 0.0 0.00 0.00 0.00 81 1012.2
20210925155459 55 0.0 0.0 0.00 0.00 0.00 85 1012.2
20210925154441 54 0.0 0.0 0.00 0.00 0.00 87 1012.3
20210925153525 54 0.0 0.0 0.00 0.00 0.00 88 1012.2
20210925153459 54 0.0 0.0 0.00 0.00 0.00 88 1012.2
20210925151504 53 0.0 0.0 0.00 0.00 0.00 88 1012.1
20210925150751 53 0.0 0.0 0.00 0.00 0.00 89 1012.1
20210925150600 53 0.0 0.0 0.00 0.00 0.00 88 1012.0
20210925145635 53 0.0 0.0 0.00 0.00 0.00 89 1012.0
20210925144559 53 0.0 0.0 0.00 0.00 0.00 88 1012.0
20210925144203 53 0.0 0.0 0.00 0.00 0.00 88 1012.1
20210925143643 53 0.0 0.0 0.00 0.00 0.00 87 1012.1
20210925141611 52 0.0 0.0 0.00 0.00 0.00 87 1012.0
20210925141118 53 0.0 0.0 0.00 0.00 0.00 87 1012.0
20210925140653 52 0.0 0.0 0.00 0.00 0.00 87 1012.1
20210925135743 53 0.0 0.0 0.00 0.00 0.00 86 1012.1
20210925134712 53 0.0 0.0 0.00 0.00 0.00 86 1012.0
20210925134059 53 0.0 0.0 0.00 0.00 0.00 87 1012.2
20210925133701 53 0.0 0.0 0.00 0.00 0.00 86 1012.2
20210925132604 53 0.0 0.0 0.00 0.00 0.00 86 1012.2
20210925131609 53 0.0 0.0 0.00 0.00 0.00 87 1012.0
20210925131321 53 0.0 0.0 0.00 0.00 0.00 87 1011.9
20210925130537 53 0.0 0.0 0.00 0.00 0.00 87 1011.9
20210925125622 53 0.0 0.0 0.00 0.00 0.00 87 1011.9
20210925124711 53 0.0 0.0 0.00 0.00 0.00 88 1012.1
20210925124552 53 0.0 0.0 0.00 0.00 0.00 87 1012.0
20210925123824 54 0.0 0.0 0.00 0.00 0.00 89 1012.0
20210925122745 54 0.0 0.0 0.00 0.00 0.00 88 1012.0
20210925121835 54 0.0 0.0 0.00 0.00 0.00 86 1011.9
20210925121646 54 0.0 0.0 0.00 0.00 0.00 86 1011.8
20210925120818 54 0.0 0.0 0.00 0.00 0.00 85 1011.8
20210925115845 54 0.0 0.0 0.00 0.00 0.00 86 1011.6
20210925115013 54 0.0 0.0 0.00 0.00 0.00 86 1011.5
20210925113854 54 0.0 0.0 0.00 0.00 0.00 87 1011.5
20210925112832 54 0.0 0.0 0.00 0.00 0.00 87 1011.6
20210925112446 54 0.0 0.0 0.00 0.00 0.00 87 1011.6
20210925111907 54 0.0 0.0 0.00 0.00 0.00 88 1011.7
20210925110937 54 0.0 0.0 0.00 0.00 0.00 90 1011.5
20210925105839 54 0.0 0.0 0.00 0.00 0.00 92 1011.5
20210925105617 54 0.0 0.0 0.00 0.00 0.00 92 1011.6
20210925104814 55 0.0 0.0 0.00 0.00 0.00 91 1011.7
20210925103806 55 0.0 0.0 0.00 0.00 0.00 91 1011.6
20210925102713 55 0.0 0.0 0.00 0.00 0.00 90 1011.7
20210925102552 55 0.0 0.0 0.00 0.00 0.00 90 1011.7
20210925101621 55 0.0 0.0 0.00 0.00 0.00 90 1011.9
20210925100028 55 0.0 0.0 0.00 0.00 0.00 90 1011.9
20210925095822 55 0.0 0.0 0.00 0.00 0.00 90 1011.8
20210925094915 55 0.0 0.0 0.00 0.00 0.00 91 1011.7
20210925093242 55 0.0 0.0 0.00 0.00 0.00 91 1011.9
20210925092907 55 0.0 0.0 0.00 0.00 0.00 91 1011.9
20210925092015 55 0.0 0.0 0.00 0.00 0.00 90 1011.9
20210925091108 55 0.0 0.0 0.00 0.00 0.00 90 1011.8
20210925090747 56 0.0 0.0 0.00 0.00 0.00 90 1011.9
20210925090150 56 0.0 0.0 0.00 0.00 0.00 90 1012.0
20210925085219 56 0.0 0.0 0.00 0.00 0.00 89 1012.1
20210925084306 56 0.0 0.0 0.00 0.00 0.00 88 1012.2
20210925083820 56 0.0 0.0 0.00 0.00 0.00 88 1012.3
20210925083309 56 0.0 0.0 0.00 0.00 0.00 88 1012.3
20210925082312 56 0.0 0.0 0.00 0.00 0.00 87 1012.2
20210925081344 56 0.0 0.0 0.00 0.00 0.00 87 1012.3
20210925080823 57 0.0 0.0 0.00 0.00 0.00 87 1012.4
20210925080447 57 0.0 0.0 0.00 0.00 0.00 87 1012.5
20210925075411 57 0.0 0.0 0.00 0.00 0.00 86 1012.6
20210925074333 57 0.0 0.0 0.00 0.00 0.00 86 1012.5
20210925074212 57 0.0 0.0 0.00 0.00 0.00 86 1012.5
20210925073237 57 0.0 0.0 0.00 0.00 0.00 85 1012.5
20210925072315 57 0.0 0.0 0.00 0.00 0.00 85 1012.3
20210925071414 58 0.0 0.0 0.00 0.00 0.00 85 1012.2
20210925071328 58 0.0 0.0 0.00 0.00 0.00 85 1012.2
20210925070438 58 0.0 0.0 0.00 0.00 0.00 85 1012.1
20210925065401 58 0.0 0.0 0.00 0.00 0.00 84 1011.9
20210925064441 58 0.0 0.0 0.00 0.00 0.00 84 1012.0
20210925064331 58 0.0 0.0 0.00 0.00 0.00 84 1012.0
20210925063507 59 0.0 0.0 0.00 0.00 0.00 83 1012.1
20210925062525 59 0.0 0.0 0.00 0.00 0.00 83 1012.2
20210925061619 59 0.0 0.0 0.00 0.00 0.00 83 1012.0
20210925061326 59 0.0 0.0 0.00 0.00 0.00 82 1012.0
20210925060633 59 0.0 0.0 0.00 0.00 0.00 82 1012.0
20210925055619 59 0.0 0.0 0.00 0.00 0.00 82 1011.9
20210925054726 60 0.0 0.0 0.00 0.00 0.00 81 1011.8
20210925054352 60 0.0 0.0 0.00 0.00 0.00 81 1011.9
20210925053809 60 0.0 0.0 0.00 0.00 0.00 80 1011.8
20210925052833 60 0.0 0.0 0.00 0.00 0.00 79 1012.1
20210925051929 60 0.0 0.0 0.00 0.00 0.00 79 1012.1
20210925051421 61 0.0 0.0 0.00 0.00 0.00 78 1012.1
20210925050854 61 0.0 0.0 0.00 0.00 0.00 77 1012.0
20210925045839 61 0.0 0.0 0.00 0.00 0.00 77 1012.1
20210925044432 61 0.0 0.0 0.00 0.00 0.00 75 1012.1
20210925043903 62 0.0 0.0 0.00 0.00 0.00 75 1012.0
20210925043009 62 0.0 0.0 0.00 0.00 0.00 74 1012.0
20210925041942 62 0.0 0.0 0.00 0.00 0.00 73 1012.0
20210925041457 62 0.0 0.0 0.00 0.00 0.00 73 1012.2
20210925040914 63 0.0 0.0 0.00 0.00 0.00 74 1012.0
20210925035841 63 0.0 0.0 0.00 0.00 0.00 72 1011.9
20210925035015 63 0.0 0.0 0.00 0.00 0.00 72 1011.9
20210925034743 63 0.0 0.0 0.00 0.00 0.00 72 1012.0
20210925031734 65 0.0 0.0 0.00 0.00 0.00 70 1011.7
20210925030734 65 0.0 0.0 0.00 0.00 0.00 69 1011.6
20210925025454 65 0.0 0.0 0.00 0.00 0.00 68 1011.6
20210925024824 66 0.0 0.0 0.00 0.00 0.00 68 1011.5
20210925023834 66 0.0 0.0 0.00 0.00 0.00 67 1011.6
20210925022827 66 0.0 0.0 0.00 0.00 0.00 67 1011.6
20210925022533 66 0.0 0.0 0.00 0.00 0.00 67 1011.5
20210925021908 67 0.0 0.0 0.00 0.00 0.00 67 1011.6
20210925020939 67 0.0 0.0 0.00 0.00 0.00 66 1011.7
20210925015922 68 0.0 0.0 0.00 0.00 0.00 65 1011.6
20210925014850 69 0.0 0.0 0.00 0.00 0.00 65 1011.7
20210925013811 69 0.0 0.0 0.00 0.00 0.00 64 1011.6
20210925013151 70 0.0 0.0 0.00 0.00 0.00 64 1011.7
20210925012957 70 0.0 0.0 0.00 0.00 0.00 64 1011.7
20210925012839 70 0.0 0.0 0.00 0.00 0.00 64 1011.8
20210925012118 70 0.0 0.0 0.00 0.00 0.00 64 1012.0
20210925011939 70 0.0 0.0 0.00 0.00 0.00 64 1012.0
20210925010914 71 0.0 0.0 0.00 0.00 0.00 64 1012.1
20210925010316 71 0.0 0.0 0.00 0.00 0.00 63 1012.0
20210925005844 71 0.0 0.0 0.00 0.00 0.00 62 1012.1
20210925004750 72 0.0 0.0 0.00 0.00 0.00 61 1012.3
20210925003834 73 0.0 0.0 0.00 0.00 0.00 59 1012.4
20210925003649 73 0.0 0.0 0.00 0.00 0.00 58 1012.4
20210925002910 73 0.0 0.0 0.00 0.00 0.00 56 1012.5
20210925001856 73 0.0 0.0 0.00 0.00 0.00 53 1012.5
20210925000956 74 0.0 0.0 0.00 0.00 0.00 53 1012.5
20210925000831 74 0.0 0.0 0.00 0.00 0.00 53 1012.7
20210924235938 74 0.0 0.0 0.00 0.00 0.00 53 1012.8
20210924235008 74 0.0 0.0 0.00 0.00 0.00 52 1012.9
20210924234100 75 0.0 0.0 0.00 0.00 0.00 52 1012.9
20210924233001 75 0.0 0.0 0.00 0.00 0.00 52 1013.2
20210924232041 74 0.0 0.0 0.00 0.00 0.00 51 1013.5
20210924231604 74 0.0 0.0 0.00 0.00 0.00 52 1013.3
20210924231123 74 0.0 0.0 0.00 0.00 0.00 52 1013.3
20210924230226 74 0.0 0.0 0.00 0.00 0.00 52 1013.5
20210924225126 74 0.0 0.0 0.00 0.00 0.00 52 1013.9
20210924224746 74 0.0 0.0 0.00 0.00 0.00 53 1013.9
20210924224119 73 0.0 0.0 0.00 0.00 0.00 54 1014.1
20210924223217 73 0.0 0.0 0.00 0.00 0.00 54 1014.1
20210924222230 73 0.0 0.0 0.00 0.00 0.00 55 1014.3
20210924221304 72 0.0 0.0 0.00 0.00 0.00 57 1014.5